Temp
72 68 64 69 72 73 69 66 68 68 72 69 69 70 72 75 75 75 74 75 76 77 81 82 82 84 81 79 76 77 75 74 75 72 72 72 72 72 73 73 75 75 75 75
67 63 74 75 75 72 69 66 66 68 73 68 68 69 72 72 72 74 76 75 77 78 75 79 80 81 80 78 78 77 77 75 77 78 78 74 72 73 72 73 73 75 75 76
65 69 79 75 73 72 64 64 64 67 68 69 66 64 66 72 73 74 75 76 78 79 75 76 78 79 80 78 78 77 77 77 78 77 76 73 73 70 70 70 71 72 74 76
67 75 77 69 72 70 57 73 74 70 62 57 67 54 62 64 68 72 74 73 76 78 79 79 79 79 80 80 80 79 78 77 78 75 74 73 72 70 69 69 70 71 74 75
68 70 70 69 73 73 69 76 73 71 62 58 60 54 59 61 63 69 75 74 77 79 80 79 80 81 82 83 81 79 79 78 79 76 76 75 71 72 70 69 70 69 71 74
70 74 75 74 76 76 77 69 66 59 54 51 56 56 58 62 65 71 76 76 78 80 81 81 82 83 82 83 81 79 77 77 78 76 75 74 72 70 68 67 68 67 70 71
66 67 70 75 66 68 68 58 46 47 47 50 54 55 65 69 73 75 75 77 79 82 79 79 79 80 80 81 81 80 77 76 77 76 76 75 72 70 70 69 68 68 70 70
56 56 68 74 72 68 64 60 50 44 43 49 51 52 64 75 82 76 79 78 80 82 81 81 80 81 81 81 82 81 78 78 77 76 76 74 73 70 70 68 69 69 72 70
52 57 68 74 76 74 63 57 61 51 45 50 54 61 73 73 73 75 75 75 77 81 82 82 82 81 82 82 82 81 79 79 79 79 76 74 72 71 71 69 69 69 70 70
63 55 66 73 73 70 69 69 58 52 46 43 50 53 59 67 69 71 73 75 76 79 82 83 84 83 83 84 84 82 81 80 80 80 77 77 74 73 71 70 69 69 70 69
59 58 60 65 64 66 62 59 54 56 51 48 46 53 65 70 73 72 75 77 78 80 82 83 85 85 85 85 84 82 81 81 79 79 77 75 74 73 70 70 70 69 68 68
65 57 55 64 66 67 65 65 62 59 50 46 49 56 73 73 75 76 77 80 81 83 83 85 85 86 85 83 82 81 81 80 79 80 77 76 74 72 71 70 70 69 68 67
63 57 58 62 60 64 61 58 53 54 51 48 50 56 71 69 70 74 77 77 79 80 79 83 84 85 85 82 81 81 81 80 79 78 78 76 73 72 72 71 69 69 68 68
64 54 58 61 62 63 61 66 60 58 53 51 54 60 66 73 74 74 75 77 78 80 81 83 84 85 85 83 81 80 79 81 79 79 78 76 75 74 73 72 70 69 68 68
62 55 53 62 67 69 70 70 65 61 62 59 70 61 69 72 77 75 80 77 77 76 76 81 81 83 83 82 80 79 79 79 79 78 77 77 77 76 74 72 71 69 69 69
59 55 54 55 63 69 68 70 68 67 62 64 59 61 69 75 69 73 78 77 78 76 79 81 81 82 81 81 79 78 78 77 78 77 77 77 76 74 74 73 71 70 69 69
57 55 52 50 59 62 58 68 68 69 67 67 62 71 70 72 75 77 75 77 79 79 79 80 81 82 81 81 80 78 78 78 78 78 77 76 76 76 75 74 73 72 70 70
59 55 49 50 52 47 64 67 73 71 74 72 71 72 75 75 72 73 74 75 77 80 81 81 82 84 83 82 81 81 79 78 77 77 77 77 77 77 77 75 74 74 73 72
61 57 51 49 45 57 65 68 69 63 70 74 70 70 73 73 73 72 75 78 76 79 80 83 85 86 83 82 81 79 78 78 77 77 77 77 78 77 76 76 75 76 74 73
57 53 51 47 47 47 62 71 73 69 61 73 72 71 73 71 65 67 74 78 79 80 77 80 84 86 83 82 81 79 77 77 77 78 78 78 79 78 77 77 77 75 74 75
54 54 50 46 48 56 66 72 73 59 63 71 72 73 72 73 72 74 76 77 78 77 79 79 81 85 83 82 81 79 78 78 81 81 80 77 79 79 79 78 75 75 75 74
50 52 49 46 45 50 63 70 63 64 70 73 75 72 71 69 72 73 76 77 78 78 79 77 80 82 81 82 82 79 78 82 83 81 79 77 78 79 78 77 75 75 75 74
48 52 52 52 53 58 62 60 64 64 66 73 74 74 74 73 71 73 74 74 77 78 78 77 75 77 82 81 83 80 81 82 81 79 78 77 78 79 79 77 75 75 75 75
52 54 53 56 58 61 62 66 64 65 66 68 74 78 79 76 74 72 74 75 75 76 77 76 74 76 77 81 83 83 81 80 78 77 77 78 76 77 77 79 79 77 75 75
52 53 52 52 58 60 64 67 63 64 67 68 71 73 79 79 76 74 73 73 74 75 74 74 72 73 75 79 78 77 78 77 77 77 77 77 78 74 75 75 72 78 78 75
55 52 49 49 58 57 57 62 64 63 64 66 68 73 76 79 78 77 74 73 73 73 73 72 72 71 72 75 76 76 78 78 78 77 75 76 76 74 75 68 64 52 54 54
MSLP
1003.53 1004.29 1004.57 1004.74 1004.73 1005.14 1005.93 1006.64 1007.35 1007.60 1007.55 1007.65 1007.40 1007.12 1007.41 1007.45 1008.06 1008.85 1009.40 1009.88 1009.44 1009.57 1009.20 1010.06 1010.55 1011.07 1011.75 1012.48 1012.95 1013.26 1013.80 1014.13 1014.64 1015.11 1015.49 1015.78 1015.88 1015.82 1015.86 1015.88 1015.73 1015.73 1016.01 1016.27
1004.27 1004.28 1003.88 1004.12 1004.68 1005.25 1005.82 1006.82 1007.64 1007.88 1007.50 1007.60 1006.97 1006.99 1007.19 1007.69 1007.60 1007.87 1008.36 1008.84 1009.41 1009.01 1009.41 1009.63 1010.12 1010.75 1011.25 1011.82 1012.50 1013.01 1013.24 1013.69 1014.07 1014.38 1014.72 1015.10 1015.49 1015.61 1015.46 1015.51 1015.65 1015.76 1015.87 1016.07
1004.23 1003.82 1003.52 1004.14 1004.24 1004.94 1005.54 1006.47 1007.29 1007.21 1007.33 1007.63 1007.65 1007.12 1007.41 1007.44 1007.30 1007.47 1007.56 1007.88 1008.27 1008.66 1008.77 1009.03 1009.49 1010.05 1010.59 1011.38 1011.94 1012.42 1012.70 1013.08 1013.56 1013.93 1014.46 1015.01 1015.50 1015.71 1015.83 1015.74 1015.86 1015.67 1015.56 1015.91
1003.94 1003.43 1003.58 1003.79 1003.93 1004.34 1005.03 1005.42 1006.34 1007.11 1008.55 1008.24 1008.17 1008.06 1006.61 1006.43 1006.23 1006.37 1006.74 1006.93 1007.18 1007.64 1008.12 1008.39 1008.74 1009.46 1009.96 1010.42 1011.34 1011.91 1012.38 1012.69 1013.12 1013.69 1014.15 1014.67 1014.99 1015.48 1015.46 1015.55 1015.70 1015.84 1015.62 1015.50
1003.36 1003.09 1003.17 1003.37 1003.29 1003.79 1004.42 1004.84 1006.08 1007.83 1009.05 1009.38 1009.08 1009.14 1006.78 1006.10 1005.43 1005.18 1005.36 1005.72 1005.90 1006.20 1006.91 1007.55 1008.08 1008.48 1008.86 1009.89 1010.67 1011.39 1011.90 1012.38 1012.69 1013.33 1013.74 1014.23 1014.77 1015.11 1015.22 1015.59 1015.84 1015.87 1015.73 1015.58
1003.01 1002.76 1002.68 1002.53 1002.94 1003.28 1004.30 1005.99 1007.51 1009.00 1009.73 1009.97 1009.19 1009.34 1006.77 1005.30 1003.80 1003.51 1003.77 1004.26 1004.58 1005.13 1005.92 1006.66 1007.32 1007.88 1008.64 1009.40 1010.27 1010.98 1011.54 1011.87 1012.27 1012.83 1013.38 1013.78 1014.40 1014.95 1015.46 1015.80 1016.06 1016.13 1015.96 1015.68
1003.11 1002.85 1002.44 1002.14 1002.90 1003.47 1004.60 1006.81 1009.10 1010.54 1011.26 1010.49 1009.29 1009.03 1005.87 1003.05 1002.37 1002.39 1002.35 1002.63 1003.01 1003.96 1005.10 1005.99 1006.85 1007.51 1008.23 1008.95 1009.52 1010.25 1010.92 1011.50 1011.95 1012.42 1013.02 1013.41 1014.00 1014.46 1014.73 1015.25 1015.82 1016.11 1015.98 1015.75
1003.97 1003.00 1002.14 1001.85 1002.14 1003.03 1004.32 1005.57 1007.78 1009.43 1010.86 1009.87 1009.10 1007.75 1004.00 1001.67 1000.95 1001.71 1002.06 1002.04 1002.44 1003.04 1003.69 1004.76 1005.44 1006.40 1007.29 1008.06 1008.83 1009.45 1010.23 1010.87 1011.51 1012.00 1012.39 1012.96 1013.54 1013.92 1014.33 1014.83 1015.32 1015.45 1015.37 1015.33
1003.65 1002.56 1001.56 1001.16 1001.30 1002.23 1004.23 1005.30 1005.46 1007.91 1009.43 1009.15 1008.22 1005.93 1003.12 1001.40 1000.98 1001.11 1001.60 1001.84 1001.81 1002.27 1002.79 1003.72 1004.51 1005.45 1006.41 1007.21 1007.84 1008.65 1009.56 1010.21 1010.85 1011.27 1012.00 1012.67 1013.25 1013.57 1014.04 1014.50 1014.75 1014.87 1015.07 1015.35
1002.38 1002.70 1001.33 1000.74 1000.92 1001.44 1002.18 1003.11 1005.39 1007.33 1008.55 1008.80 1007.66 1006.09 1003.53 1001.63 1001.33 1000.94 1001.06 1001.17 1001.21 1001.57 1002.23 1003.04 1003.63 1004.43 1005.37 1006.25 1006.96 1008.00 1008.94 1009.37 1009.99 1010.78 1011.55 1012.21 1012.80 1013.08 1013.60 1014.20 1014.56 1014.76 1014.84 1015.30
1002.26 1002.58 1001.82 1001.08 1000.94 1001.06 1002.06 1002.79 1004.37 1005.74 1007.04 1007.62 1007.02 1005.36 1002.05 1001.20 1000.70 1000.59 1000.52 1000.60 1000.64 1000.78 1001.04 1001.87 1002.59 1003.49 1004.25 1005.46 1006.76 1007.58 1008.39 1009.01 1009.83 1010.42 1011.03 1011.81 1012.46 1012.81 1013.40 1013.83 1014.11 1014.45 1014.90 1015.32
1001.53 1002.09 1002.22 1001.34 1000.18 1000.20 1000.51 1001.38 1002.71 1005.02 1006.61 1006.74 1005.75 1003.15 1000.58 1000.17 999.52 999.92 999.76 999.73 999.91 999.80 1000.17 1000.83 1001.77 1002.67 1003.87 1005.09 1006.00 1007.00 1007.86 1008.46 1009.05 1009.59 1010.47 1011.33 1012.04 1012.70 1013.26 1013.65 1013.74 1014.15 1014.78 1015.25
1002.05 1002.03 1002.34 1001.26 1000.86 1000.18 1000.31 1000.95 1001.98 1002.92 1004.08 1005.40 1005.30 1002.66 1000.41 999.78 999.57 999.21 999.11 999.49 999.71 999.76 1000.03 1000.75 1001.56 1002.28 1003.10 1004.40 1005.36 1006.26 1007.27 1007.70 1008.49 1009.14 1010.07 1010.95 1011.70 1012.38 1012.95 1013.42 1013.56 1013.90 1014.67 1015.15
1002.41 1002.38 1002.15 1001.29 1000.31 999.88 1000.10 1000.28 1001.11 1001.89 1003.65 1003.88 1003.39 1001.85 1000.63 999.64 999.00 998.87 998.66 998.59 999.10 999.29 999.57 1000.19 1000.97 1001.64 1002.48 1003.43 1004.68 1005.61 1006.65 1007.30 1008.06 1008.76 1009.68 1010.39 1011.06 1011.69 1012.42 1013.13 1013.54 1013.73 1014.10 1014.92
1003.23 1003.67 1002.64 1001.06 999.58 999.47 999.04 999.17 999.93 1000.83 1001.13 1002.36 1001.09 1001.13 999.82 999.07 997.98 998.20 997.85 998.15 998.82 999.32 999.80 1000.05 1000.44 1001.09 1001.89 1003.05 1004.10 1005.19 1006.16 1006.76 1007.55 1008.39 1009.23 1009.71 1010.35 1011.13 1012.08 1012.84 1013.31 1013.52 1013.83 1014.04
1003.88 1003.75 1003.09 1001.72 999.87 999.53 998.59 998.06 998.63 999.14 999.86 1000.15 999.91 999.41 997.93 997.19 997.52 997.75 997.77 997.86 998.22 998.51 998.83 999.34 999.89 1000.65 1001.47 1002.41 1003.36 1004.56 1005.47 1006.34 1007.15 1008.00 1008.67 1009.42 1010.11 1010.75 1011.44 1012.16 1012.91 1013.27 1013.66 1014.00
1004.33 1004.26 1004.13 1003.15 1001.40 1000.09 998.99 997.41 997.40 997.68 998.12 998.28 998.75 997.16 996.84 997.10 997.19 996.87 996.83 997.53 997.62 997.65 998.13 998.75 999.02 999.75 1000.75 1001.52 1002.73 1003.81 1004.76 1005.89 1006.70 1007.48 1008.25 1008.92 1009.62 1010.19 1010.79 1011.48 1012.24 1012.67 1013.14 1013.51
1004.20 1004.84 1004.78 1003.98 1002.45 1000.50 997.92 996.80 996.58 996.93 996.74 996.96 996.65 996.22 996.13 995.96 995.96 996.10 996.38 996.66 996.74 997.04 997.38 997.85 998.53 999.40 1000.19 1000.92 1001.99 1002.85 1004.32 1005.27 1006.18 1007.05 1007.67 1008.41 1009.03 1009.58 1010.31 1010.95 1011.46 1011.86 1012.34 1012.82
1003.90 1004.75 1005.06 1004.66 1003.50 1000.95 998.17 997.08 996.83 997.18 996.44 995.90 995.84 995.85 995.77 996.03 995.86 996.24 996.05 995.91 996.23 996.46 996.76 997.05 997.60 998.43 999.63 1000.57 1001.52 1002.71 1003.96 1004.90 1005.67 1006.34 1007.00 1007.64 1008.28 1009.00 1009.66 1010.16 1010.75 1011.23 1011.73 1012.12
1004.01 1004.37 1005.59 1005.01 1003.96 1001.80 998.87 997.22 997.11 997.35 997.10 995.65 995.59 995.42 995.55 996.03 996.72 996.61 996.03 995.84 996.06 996.62 996.62 996.98 997.55 998.45 999.33 1000.14 1001.21 1002.16 1003.35 1004.38 1004.97 1005.44 1005.95 1006.76 1007.50 1008.13 1008.65 1009.07 1009.69 1010.30 1010.84 1011.33
1004.95 1004.91 1006.22 1005.55 1004.18 1002.14 999.46 998.30 997.71 998.16 997.50 995.71 995.25 995.29 995.21 995.47 995.14 995.28 995.59 995.69 995.88 996.08 996.52 997.00 997.65 998.04 998.70 999.85 1000.77 1001.79 1002.65 1003.41 1003.32 1004.10 1005.13 1006.10 1006.75 1007.13 1007.49 1008.33 1009.08 1009.64 1010.26 1010.84
1005.89 1006.04 1006.18 1006.09 1004.91 1003.28 1001.18 999.23 999.77 1000.23 997.72 996.32 995.48 995.81 995.78 995.25 995.32 995.65 995.74 995.85 995.92 996.02 996.46 996.91 997.31 997.77 998.40 999.27 1000.05 1001.09 1001.68 1001.59 1002.93 1004.04 1004.86 1005.55 1005.98 1006.47 1007.10 1007.71 1008.47 1009.17 1009.86 1010.50
1006.74 1006.35 1006.27 1005.75 1004.65 1003.56 1002.93 1002.46 1002.11 1001.28 999.32 997.83 996.14 995.80 995.78 995.82 996.09 996.19 996.38 996.45 996.31 996.27 996.52 996.84 997.46 997.64 998.00 998.53 999.20 1000.19 1000.24 1001.65 1002.58 1003.49 1004.27 1005.00 1005.63 1006.16 1006.54 1007.18 1007.98 1008.80 1009.31 1009.82
1006.98 1006.57 1006.35 1005.72 1004.83 1003.58 1003.08 1002.55 1002.16 1001.30 1000.51 999.28 997.73 996.18 995.88 996.22 996.72 996.82 996.77 996.73 996.64 996.63 996.66 996.82 997.37 997.94 998.06 998.35 998.59 998.85 1000.26 1001.11 1002.10 1002.90 1003.82 1004.60 1005.22 1005.69 1006.27 1007.00 1007.71 1008.15 1008.60 1009.12
1007.34 1006.66 1006.65 1006.10 1005.14 1004.01 1003.19 1003.26 1003.37 1001.84 1001.19 1000.16 998.47 997.70 996.09 996.05 996.92 997.53 997.55 997.13 997.08 996.85 996.86 996.98 997.33 997.79 997.88 998.04 998.78 999.32 999.93 1000.86 1002.04 1002.82 1003.49 1004.12 1004.65 1005.34 1006.14 1007.00 1007.75 1007.78 1007.76 1008.09
1007.17 1007.07 1006.99 1006.49 1005.80 1006.06 1005.06 1003.43 1003.64 1002.80 1002.72 1001.27 999.62 998.28 997.48 996.53 996.43 996.93 997.59 997.61 997.22 997.12 996.68 997.19 997.57 997.82 998.10 998.45 998.85 999.49 1000.01 1000.63 1001.53 1002.53 1003.26 1003.74 1004.36 1005.24 1005.88 1006.91 1007.92 1008.18 1008.04 1008.07
Wind_Speed
2 5 5 9 7 3 6 4 5 3 4 4 4 6 9 13 10 12 11 13 15 16 18 16 15 14 11 9 11 12 10 8 6 3 3 2 4 3 2 4 6 7 5 6
4 6 11 5 4 4 5 6 2 3 4 2 4 9 8 8 5 8 14 13 14 15 8 12 14 15 15 14 12 12 12 9 8 6 3 3 3 1 2 1 3 2 5 6
8 5 7 4 4 5 5 8 5 5 2 2 5 4 4 3 5 8 7 7 9 15 12 14 15 17 15 14 14 13 13 12 10 7 5 3 3 2 1 0 1 4 7 5
7 6 7 3 7 6 4 10 11 10 4 3 2 6 5 1 8 9 12 9 11 11 11 14 16 17 17 17 13 12 12 12 10 7 6 6 5 4 4 3 2 3 2 5
10 5 5 6 9 6 8 12 13 10 4 3 2 3 10 3 7 11 15 14 14 13 14 16 18 19 19 15 14 13 13 12 12 9 9 8 4 2 2 2 5 3 3 5
7 3 6 8 4 9 7 8 8 6 4 6 6 6 10 7 10 3 8 15 17 15 14 16 17 17 15 14 13 13 14 12 11 11 9 10 8 6 4 3 3 3 3 2
6 5 3 3 2 1 7 8 4 4 2 8 7 4 15 10 14 14 3 11 16 15 14 15 17 16 15 16 16 14 14 13 12 12 11 10 8 9 9 7 5 5 4 4
7 9 10 5 10 11 10 11 9 9 6 6 3 8 13 13 21 4 8 10 12 16 18 20 21 19 18 19 18 17 16 14 13 13 12 8 8 6 5 6 5 6 6 4
7 11 2 5 6 11 6 4 5 9 4 4 5 9 13 7 8 6 8 9 11 15 18 21 20 20 19 19 19 19 17 15 14 15 10 9 7 8 7 7 5 4 4 2
8 4 5 6 5 3 10 8 3 2 6 4 4 5 8 9 6 6 8 9 9 10 15 17 19 20 18 18 19 17 16 18 15 13 10 9 9 8 7 6 7 6 5 3
6 6 5 4 6 10 2 3 6 7 6 8 4 8 10 13 8 12 12 12 13 16 17 19 20 20 20 17 16 16 16 16 12 12 10 10 9 8 7 7 7 6 4 4
9 6 6 12 3 2 5 7 7 7 7 2 4 9 6 11 11 12 13 14 14 17 16 19 20 20 18 18 17 18 16 15 14 13 11 10 10 8 7 6 7 5 5 3
2 2 7 12 7 5 2 3 4 6 5 8 8 9 4 8 6 8 10 8 8 12 11 14 16 19 19 17 17 17 16 16 13 12 11 10 11 11 10 8 7 5 5 5
2 1 8 13 13 6 4 6 5 7 4 6 8 7 6 9 10 7 10 9 7 9 13 15 16 20 18 18 18 17 15 14 13 13 12 12 12 12 11 8 7 6 6 7
5 2 3 11 7 6 7 6 8 6 8 8 19 12 13 13 14 12 14 6 5 10 10 15 17 18 17 16 15 15 14 14 14 13 13 13 11 10 9 9 9 7 6 5
4 3 6 6 3 7 5 6 9 8 2 9 6 9 11 10 4 6 11 9 9 9 12 16 17 18 18 17 17 16 15 15 14 13 13 10 9 9 10 9 8 7 7 6
2 3 6 6 6 6 2 6 5 4 6 7 8 17 6 7 8 12 10 10 12 11 12 15 20 20 18 18 17 17 17 15 15 14 12 12 11 11 11 9 9 10 10 7
4 3 2 5 6 4 9 2 3 4 7 8 8 5 10 9 4 4 6 9 10 11 13 14 14 15 17 17 17 15 15 16 16 14 13 12 12 13 11 11 11 10 9 11
5 4 2 2 2 7 2 2 4 1 10 5 6 3 5 6 4 5 1 7 7 9 11 12 15 17 15 17 15 15 14 14 14 15 15 14 14 13 12 13 12 9 8 8
7 8 2 3 1 4 7 1 1 5 7 4 5 9 11 5 5 6 4 5 9 9 6 10 10 11 15 15 16 17 16 15 15 15 16 15 15 14 14 13 13 9 8 9
3 4 0 2 4 8 6 10 3 4 10 5 2 6 9 8 7 8 7 5 5 6 10 9 9 14 15 15 17 17 17 19 21 18 15 14 15 16 15 11 6 8 9 6
5 4 3 1 2 5 14 7 4 7 10 4 6 4 5 4 6 7 7 7 5 6 5 7 11 13 12 15 17 17 19 22 14 13 13 13 14 12 9 12 9 9 9 9
2 1 3 8 6 3 8 6 5 10 7 10 4 3 6 6 3 4 4 5 4 6 2 1 6 7 13 17 18 18 20 14 14 14 14 14 12 11 10 12 11 8 10 9
3 1 2 5 3 15 7 7 11 16 14 16 14 2 7 7 5 3 4 4 3 2 1 1 7 10 12 14 17 17 13 13 14 14 13 11 12 12 10 9 9 9 9 9
5 2 2 4 6 15 7 11 14 17 17 16 11 8 3 7 7 5 4 5 5 4 0 1 5 7 10 12 9 10 13 14 13 11 10 11 9 10 9 5 3 8 9 9
2 2 2 4 6 5 11 13 17 15 15 14 11 13 12 2 10 8 6 4 2 2 3 4 4 7 7 8 11 11 13 14 14 11 9 9 8 7 7 6 4 9 6 2
Wind_Direction
349 86 208 215 214 134 152 110 103 33 298 288 203 202 165 165 166 192 198 220 204 204 210 198 198 194 177 170 168 180 173 181 159 165 160 177 181 197 188 219 206 198 184 180
26 209 233 232 201 151 162 127 119 196 226 203 244 241 145 151 167 180 200 200 230 218 196 192 187 184 182 183 179 188 188 176 185 189 166 150 151 198 182 200 209 235 194 183
200 215 182 190 251 208 193 148 206 200 157 307 324 287 162 178 147 177 198 205 197 227 205 190 182 185 180 183 185 190 190 184 191 181 126 102 89 51 49 302 93 112 231 189
232 218 223 153 245 155 239 176 163 146 167 192 46 284 314 324 242 197 194 207 208 213 206 194 184 183 186 191 182 189 190 187 195 163 157 165 180 171 203 166 168 164 176 155
232 160 152 187 220 161 233 153 169 103 119 334 25 53 272 317 283 230 220 210 213 204 193 190 187 188 190 181 184 186 192 190 194 176 177 189 174 186 141 128 151 186 211 200
232 209 144 216 174 201 101 70 48 58 53 343 178 138 278 232 216 236 187 205 208 199 189 190 189 184 187 181 180 184 188 193 190 181 186 189 179 180 144 169 167 211 241 248
292 252 228 189 163 74 98 83 26 12 10 229 154 134 243 269 248 228 191 201 192 188 178 173 177 187 180 184 186 186 186 190 189 183 189 196 178 179 179 176 167 181 203 215
204 303 175 183 180 185 172 155 157 180 191 235 107 216 251 236 249 210 182 192 203 186 179 179 178 184 181 186 187 185 187 193 186 184 188 190 169 177 184 180 173 197 206 213
158 262 217 168 176 135 216 207 184 95 346 102 215 283 300 267 242 183 182 172 190 184 180 184 178 181 181 186 184 187 188 193 191 190 179 186 172 167 185 190 196 196 215 177
218 288 217 231 140 212 153 171 79 321 135 209 271 267 241 291 251 200 193 200 184 177 180 187 185 184 185 188 187 183 189 191 193 186 182 179 181 178 184 170 208 206 214 161
139 131 273 103 178 212 136 187 54 113 130 163 195 257 217 242 211 203 203 211 193 201 188 184 185 188 185 182 183 187 187 190 188 188 177 164 169 175 171 190 205 206 143 184
204 152 227 215 262 200 164 222 162 167 233 227 168 256 256 235 244 187 213 205 205 202 190 180 182 184 176 183 179 184 186 188 191 188 173 168 159 159 171 197 222 195 164 184
279 246 253 301 347 360 182 206 142 111 80 191 143 257 310 267 247 242 242 218 176 187 167 171 175 182 180 178 180 182 185 191 185 180 172 161 162 171 183 188 212 201 161 173
160 99 184 218 223 176 173 183 155 118 110 166 218 238 283 267 232 227 241 239 190 188 166 171 171 181 184 177 180 179 186 186 181 179 174 174 175 178 182 176 190 200 193 172
83 92 298 289 254 184 211 181 163 159 204 160 243 193 237 227 240 209 222 232 189 157 167 174 168 177 181 179 171 174 181 178 180 177 178 188 179 172 169 173 185 191 198 207
349 313 3 298 183 244 207 185 170 206 163 253 134 242 215 245 197 150 219 217 234 193 181 173 167 172 174 176 174 171 173 178 176 178 184 174 168 159 179 181 177 176 192 201
348 41 19 287 350 283 303 210 197 221 182 164 177 224 170 223 212 220 219 194 212 202 178 170 173 174 176 176 172 174 175 171 174 184 179 175 175 179 184 182 175 186 188 180
194 94 122 265 351 208 235 254 212 240 264 226 265 257 184 217 174 133 175 199 203 187 180 184 169 174 180 172 180 172 165 173 173 180 183 178 182 190 184 182 194 191 177 189
163 128 174 196 230 280 261 80 78 34 287 246 237 187 182 141 82 8 216 173 204 197 187 183 177 179 165 173 171 162 165 175 173 180 182 185 188 190 187 187 192 196 183 187
93 105 144 132 179 268 242 204 110 127 277 277 191 174 158 155 108 237 228 155 172 195 171 173 170 169 169 169 163 159 167 174 183 186 188 185 190 191 193 196 189 178 186 195
17 42 335 260 224 282 292 311 292 123 244 297 171 211 169 169 188 171 158 115 137 168 181 152 156 177 172 163 164 170 169 187 196 189 180 180 189 192 196 184 170 177 181 174
162 137 171 334 228 246 11 343 36 308 300 284 84 355 9 62 98 127 136 135 142 154 156 174 172 172 168 167 169 176 182 200 184 174 177 183 187 191 181 177 171 174 174 180
114 149 205 171 235 306 335 259 319 325 301 331 61 81 111 98 84 125 137 156 170 164 179 163 204 169 172 170 177 181 201 175 176 172 179 182 183 187 185 180 179 173 179 184
313 68 225 6 359 336 297 2 352 354 338 329 349 301 137 146 169 187 167 186 187 225 202 11 156 177 178 183 187 190 168 165 170 175 177 176 178 184 183 192 189 189 186 187
234 10 7 275 310 324 255 353 343 345 336 326 331 326 212 124 153 175 201 191 214 176 263 20 170 186 187 170 167 152 150 152 164 172 175 186 191 185 176 164 217 204 202 195
237 92 50 260 287 230 280 314 328 341 314 320 334 358 353 235 161 159 185 220 195 158 100 85 110 137 143 141 139 146 152 156 157 168 178 182 176 175 177 148 137 51 55 83